User: anonymous   Login
Location: Caltech
(34.1382°N, 118.1253°W)
Time: 23:15:53
(UTC-07:00)
Language:

GPS 2-04 Rocket1 - Orbit

View from above orbital plane
View from above orbital plane
View from above satellite
View from above satellite

Ground track
Ground track

The orbit data is extracted from the following two-line orbital elements,

1 20303U 89085B   14303.32834562  .00018484  00000-0  84819-3 0  9080
2 20303 035.6322 242.6086 0134641 010.5279 126.8825 15.11814891354331
Epoch (UTC): 30 October 2014 07:52:49
Eccentricity: 0.0134641
inclination: 35.6322°
perigee height: 437 km
apogee height: 623 km
right ascension of ascending node: 242.6086°
argument of perigee: 10.5279°
revolutions per day: 15.11814891
mean anomaly at epoch: 126.8825°
orbit number at epoch: 35433

The dashed part of the orbit path shows where the satellite is in the earth's shadow,  

DLR